Dallas/Ft Worth, TX

1:44 PM CDT on July 20, 2017 (GMT -0500)
Dallas-Fort Worth International

Weather History for KDFW - April, 2012

Change the Weather History Date:

Saturday, April 21, 2012

  Actual Average Record
Temperature  
Mean Temperature 61 °F 67 °F  
Max Temperature 75 °F 78 °F 95 °F (1955)
Min Temperature 46 °F 56 °F 39 °F (1918)
Degree Days  
Heating Degree Days 4 2  
Month to date heating degree days 7 72  
Since 1 July heating degree days 1776 2265  
Cooling Degree Days 0 4  
Month to date cooling degree days 90 58  
Year to date cooling degree days 193 97  
Growing Degree Days 10 (Base 50)    
Moisture  
Dew Point 45 °F    
Average Humidity 61    
Maximum Humidity 93    
Minimum Humidity 29    
Precipitation  
Precipitation 0.00 in 0.12 in 2.21 in (1926)
Month to date precipitation 4.24 1.94  
Year to date precipitation 18.04 10.22  
Snow  
Snow 0.00 in 0.00 in 0.00 in ()
Month to date snowfall 0.0 0.0  
Since 1 July snowfall 0.3 1.6  
Snow Depth 0.00 in    
Sea Level Pressure  
Sea Level Pressure 30.01 in    
Wind  
Wind Speed 6 mph (North)    
Max Wind Speed 16 mph    
Max Gust Speed 20 mph    
Visibility 10 miles    
Events      
T = Trace of Precipitation, MM = Missing Value Source: NWS Daily Summary

Daily Weather History Graph

Daily Weather History Graph

Search for Another Location

Airport or City:

Trip Planner

Search our weather history database for the weather conditions in past years. The results will help you decide how hot, cold, wet, or windy it might be!

Date:

Astronomy

Apr. 21, 2012 Rise Set
Actual Time 6:50 AM CDT 8:03 PM CDT
Civil Twilight 6:25 AM CDT 8:28 PM CDT
Nautical Twilight 5:54 AM CDT 8:59 PM CDT
Astronomical Twilight 5:22 AM CDT 9:31 PM CDT
Moon 6:50 AM CDT (4/21) 8:41 PM CDT (4/21)
Length of Visible Light 14h 03m
Length of Day
13h 12m
New Moon, 0% of the Moon is Illuminated
Apr 21
New Moon
Apr 29
First Quarter
May 5
Full
May 12
Last Quarter
May 20
New

Hourly Weather History & Observations

Time (CDT) Temp. Dew Point Humidity Pressure Visibility Wind Dir Wind Speed Gust Speed Precip Events Conditions
12:53 AM 55.9 °F 46.0 °F 69% 30.02 in 10.0 mi NNW 13.8 mph - N/A   Clear
1:53 AM 55.0 °F 46.0 °F 72% 30.01 in 10.0 mi NNW 13.8 mph - N/A   Clear
2:53 AM 52.0 °F 45.0 °F 77% 29.99 in 10.0 mi North 6.9 mph - N/A   Clear
3:53 AM 51.1 °F 45.0 °F 80% 29.99 in 10.0 mi NNW 6.9 mph - N/A   Clear
4:53 AM 50.0 °F 45.0 °F 83% 30.00 in 10.0 mi NNW 6.9 mph - N/A   Clear
5:53 AM 51.1 °F 46.0 °F 83% 30.00 in 10.0 mi NW 9.2 mph - N/A   Clear
6:53 AM 46.9 °F 44.1 °F 90% 30.01 in 10.0 mi North 6.9 mph - N/A   Partly Cloudy
7:53 AM 52.0 °F 46.9 °F 83% 30.04 in 10.0 mi NNW 6.9 mph - N/A   Clear
8:53 AM 55.9 °F 48.0 °F 75% 30.06 in 10.0 mi NNW 8.1 mph - N/A   Clear
9:53 AM 60.1 °F 44.1 °F 55% 30.06 in 10.0 mi NNE 10.4 mph - N/A   Clear
10:53 AM 63.0 °F 44.1 °F 50% 30.06 in 10.0 mi North 10.4 mph - N/A   Clear
11:53 AM 64.9 °F 42.1 °F 43% 30.06 in 10.0 mi North 9.2 mph - N/A   Clear
12:53 PM 68.0 °F 41.0 °F 37% 30.04 in 10.0 mi NW 8.1 mph 19.6 mph N/A   Clear
1:53 PM 70.0 °F 42.1 °F 36% 30.03 in 10.0 mi NNW 9.2 mph - N/A   Clear
2:53 PM 72.0 °F 42.1 °F 34% 30.01 in 10.0 mi NW 9.2 mph - N/A   Clear
3:53 PM 73.0 °F 44.1 °F 35% 29.98 in 10.0 mi Variable 6.9 mph - N/A   Clear
4:53 PM 73.9 °F 39.9 °F 29% 29.96 in 10.0 mi Variable 3.5 mph - N/A   Clear
5:53 PM 73.0 °F 46.0 °F 38% 29.96 in 10.0 mi ESE 3.5 mph - N/A   Clear
6:53 PM 72.0 °F 46.9 °F 41% 29.96 in 10.0 mi East 3.5 mph - N/A   Partly Cloudy
7:53 PM 70.0 °F 46.9 °F 44% 29.97 in 10.0 mi Calm Calm - N/A   Clear
8:53 PM 68.0 °F 45.0 °F 43% 29.98 in 10.0 mi ENE 3.5 mph - N/A   Clear
9:53 PM 66.9 °F 46.0 °F 47% 29.98 in 10.0 mi South 3.5 mph - N/A   Clear
10:53 PM 64.0 °F 46.0 °F 52% 29.99 in 10.0 mi Calm Calm - N/A   Clear
11:53 PM 62.1 °F 46.9 °F 58% 30.00 in 10.0 mi ESE 4.6 mph - N/A   Clear